When you browse on this site, cookies collect data to enhance your experience and personalize the content and advertising you see.
Visit our Privacy Policy to learn more. By continuing to use the site, you agree to this use of cookies and data.
  • En España
  • Lista de países
  • Para 7 días
  • Temperatura del agua
  • El tiempo en el mapa
  • Informadores
  • user-avatar
    Iniciar sesión

    Tiempo cada hora Luanda

    Hoy, 23 Enero, Jueves

    Tiempo Temperatura Precipitaciones Viento Presión Humedad
    00:00 +28°C° 0 mm 4 mps 752 mmHg 87%
    01:00 +28°C° 0 mm 3 mps 752 mmHg 87%
    02:00 +28°C° 0.1 mm 2 mps 752 mmHg 87%
    03:00 +28°C° 0.1 mm 2 mps 752 mmHg 87%
    04:00 +28°C° 0.1 mm 2 mps 751 mmHg 87%
    05:00 +28°C° 0.3 mm 2 mps 752 mmHg 86%
    06:00 +28°C° 0.3 mm 2 mps 752 mmHg 85%
    07:00 +28°C° 0 mm 2 mps 753 mmHg 85%
    08:00 +29°C° 0.1 mm 1 mps 753 mmHg 81%
    09:00 +30°C° 0.1 mm 1 mps 753 mmHg 77%
    10:00 +28°C° 0.1 mm 0 mps 753 mmHg 73%
    11:00 +32°C° 0 mm 1 mps 753 mmHg 68%
    12:00 +34°C° 0 mm 2 mps 752 mmHg 63%
    13:00 +35°C° 0 mm 3 mps 751 mmHg 58%
    14:00 +35°C° 0.1 mm 4 mps 751 mmHg 61%
    15:00 +34°C° 0.1 mm 5 mps 750 mmHg 64%
    16:00 +33°C° 0.1 mm 6 mps 750 mmHg 67%
    17:00 +32°C° 0 mm 6 mps 750 mmHg 70%
    18:00 +30°C° 0 mm 5 mps 751 mmHg 74%
    19:00 +30°C° 0 mm 5 mps 751 mmHg 77%
    20:00 +29°C° 0 mm 5 mps 752 mmHg 79%
    21:00 +29°C° 0 mm 4 mps 752 mmHg 81%
    22:00 +29°C° 0 mm 4 mps 753 mmHg 83%
    23:00 +28°C° 0 mm 4 mps 753 mmHg 83%

    Mañana, 24 Enero, Viernes

    Tiempo Temperatura Precipitaciones Viento Presión Humedad
    00:00 +28°C° 0 mm 4 mps 753 mmHg 84%
    01:00 +28°C° 0 mm 4 mps 752 mmHg 85%
    02:00 +28°C° 0 mm 3 mps 752 mmHg 86%
    03:00 +27°C° 0 mm 3 mps 752 mmHg 87%
    04:00 +27°C° 0 mm 2 mps 752 mmHg 89%
    05:00 +27°C° 0 mm 2 mps 752 mmHg 88%
    06:00 +28°C° 0 mm 2 mps 753 mmHg 87%
    07:00 +28°C° 0 mm 2 mps 753 mmHg 86%
    08:00 +29°C° 0 mm 2 mps 754 mmHg 77%
    09:00 +31°C° 0 mm 2 mps 754 mmHg 67%
    10:00 +34°C° 0 mm 2 mps 754 mmHg 58%
    11:00 +35°C° 0 mm 3 mps 753 mmHg 55%
    12:00 +36°C° 0 mm 4 mps 753 mmHg 51%
    13:00 +36°C° 0 mm 5 mps 752 mmHg 48%
    14:00 +36°C° 0 mm 5 mps 752 mmHg 50%
    15:00 +35°C° 0 mm 5 mps 751 mmHg 52%
    16:00 +34°C° 0 mm 5 mps 751 mmHg 54%
    17:00 +33°C° 0 mm 5 mps 751 mmHg 60%
    18:00 +32°C° 0 mm 5 mps 752 mmHg 65%
    19:00 +30°C° 0 mm 5 mps 752 mmHg 70%
    20:00 +29°C° 0 mm 5 mps 753 mmHg 72%
    21:00 +29°C° 0 mm 4 mps 753 mmHg 74%
    22:00 +28°C° 0 mm 4 mps 754 mmHg 76%
    23:00 +28°C° 0 mm 4 mps 754 mmHg 78%

    Pasado mañana, 25 Enero, Sábado

    Tiempo Temperatura Precipitaciones Viento Presión Humedad
    00:00 +28°C° 0 mm 4 mps 754 mmHg 79%
    01:00 +28°C° 0 mm 4 mps 754 mmHg 81%
    02:00 +27°C° 0 mm 3 mps 753 mmHg 82%
    03:00 +27°C° 0 mm 3 mps 753 mmHg 83%
    04:00 +27°C° 0 mm 2 mps 753 mmHg 84%
    05:00 +27°C° 0.1 mm 2 mps 753 mmHg 84%
    06:00 +27°C° 0.1 mm 2 mps 754 mmHg 83%
    07:00 +27°C° 0.1 mm 2 mps 754 mmHg 83%
    08:00 +29°C° 0 mm 2 mps 754 mmHg 75%
    09:00 +31°C° 0 mm 1 mps 754 mmHg 67%
    10:00 +32°C° 0 mm 1 mps 754 mmHg 59%
    11:00 +34°C° 0 mm 2 mps 754 mmHg 57%
    12:00 +35°C° 0 mm 3 mps 753 mmHg 56%
    13:00 +35°C° 0 mm 4 mps 753 mmHg 54%
    14:00 +35°C° 0 mm 5 mps 752 mmHg 55%
    15:00 +34°C° 0 mm 5 mps 752 mmHg 57%
    16:00 +34°C° 0 mm 6 mps 752 mmHg 58%
    17:00 +33°C° 0 mm 5 mps 752 mmHg 63%
    18:00 +30°C° 0 mm 5 mps 752 mmHg 67%
    19:00 +29°C° 0 mm 5 mps 752 mmHg 72%
    20:00 +29°C° 0 mm 4 mps 753 mmHg 74%
    21:00 +28°C° 0 mm 4 mps 753 mmHg 75%
    22:00 +28°C° 0 mm 4 mps 754 mmHg 77%
    23:00 +28°C° 0 mm 3 mps 754 mmHg 77%

    26 Enero, Domingo

    Tiempo Temperatura Precipitaciones Viento Presión Humedad
    00:00 +28°C° 0 mm 3 mps 754 mmHg 78%
    01:00 +28°C° 0 mm 3 mps 753 mmHg 78%
    02:00 +27°C° 0 mm 3 mps 753 mmHg 79%
    03:00 +27°C° 0 mm 2 mps 753 mmHg 81%
    04:00 +27°C° 0 mm 2 mps 753 mmHg 82%
    05:00 +27°C° 0 mm 2 mps 753 mmHg 81%
    06:00 +27°C° 0 mm 2 mps 754 mmHg 81%
    07:00 +27°C° 0 mm 3 mps 754 mmHg 80%
    08:00 +29°C° 0 mm 2 mps 754 mmHg 73%
    09:00 +30°C° 0 mm 1 mps 754 mmHg 66%
    10:00 +32°C° 0 mm 1 mps 754 mmHg 58%
    11:00 +34°C° 0 mm 2 mps 754 mmHg 55%
    12:00 +35°C° 0 mm 3 mps 753 mmHg 52%
    13:00 +36°C° 0 mm 3 mps 753 mmHg 48%
    14:00 +35°C° 0 mm 4 mps 752 mmHg 50%
    15:00 +34°C° 0 mm 5 mps 752 mmHg 53%
    16:00 +34°C° 0 mm 5 mps 751 mmHg 55%
    17:00 +32°C° 0 mm 5 mps 752 mmHg 60%
    18:00 +30°C° 0 mm 5 mps 752 mmHg 65%
    19:00 +29°C° 0 mm 5 mps 753 mmHg 70%
    20:00 +28°C° 0 mm 4 mps 753 mmHg 71%
    21:00 +28°C° 0 mm 4 mps 754 mmHg 73%
    22:00 +28°C° 0 mm 3 mps 754 mmHg 75%
    23:00 +28°C° 0 mm 3 mps 754 mmHg 76%

    27 Enero, Lunes

    Tiempo Temperatura Precipitaciones Viento Presión Humedad
    00:00 +27°C° 0 mm 3 mps 754 mmHg 76%
    01:00 +27°C° 0 mm 3 mps 754 mmHg 77%
    02:00 +27°C° 0 mm 3 mps 754 mmHg 78%
    03:00 +27°C° 0 mm 2 mps 753 mmHg 79%
    04:00 +26°C° 0 mm 2 mps 753 mmHg 80%
    05:00 +27°C° 0 mm 2 mps 753 mmHg 79%
    06:00 +27°C° 0 mm 2 mps 754 mmHg 78%
    07:00 +27°C° 0 mm 2 mps 754 mmHg 77%
    08:00 +28°C° 0 mm 2 mps 754 mmHg 73%
    09:00 +28°C° 0 mm 1 mps 754 mmHg 68%
    10:00 +29°C° 0 mm 1 mps 755 mmHg 64%
    11:00 +29°C° 0 mm 1 mps 754 mmHg 63%
    12:00 +30°C° 0 mm 1 mps 754 mmHg 62%
    13:00 +30°C° 0 mm 1 mps 753 mmHg 61%
    14:00 +31°C° 0 mm 2 mps 752 mmHg 58%
    15:00 +31°C° 0 mm 3 mps 752 mmHg 54%
    16:00 +33°C° 0 mm 4 mps 751 mmHg 51%
    17:00 +32°C° 0 mm 4 mps 751 mmHg 58%
    18:00 +29°C° 0 mm 4 mps 752 mmHg 66%
    19:00 +28°C° 0 mm 3 mps 752 mmHg 73%
    20:00 +28°C° 0 mm 3 mps 753 mmHg 76%
    21:00 +27°C° 0 mm 3 mps 754 mmHg 78%
    22:00 +27°C° 0 mm 3 mps 754 mmHg 81%
    23:00 +27°C° 0 mm 3 mps 754 mmHg 83%

    28 Enero, Martes

    Tiempo Temperatura Precipitaciones Viento Presión Humedad
    00:00 +27°C° 0 mm 2 mps 754 mmHg 84%
    01:00 +26°C° 0 mm 2 mps 754 mmHg 86%
    02:00 +26°C° 0 mm 2 mps 754 mmHg 86%
    03:00 +26°C° 0 mm 2 mps 753 mmHg 86%
    04:00 +26°C° 0 mm 2 mps 753 mmHg 87%
    05:00 +26°C° 0 mm 2 mps 753 mmHg 86%
    06:00 +26°C° 0 mm 2 mps 753 mmHg 86%
    07:00 +26°C° 0 mm 2 mps 753 mmHg 85%
    08:00 +28°C° 0 mm 2 mps 754 mmHg 76%
    09:00 +30°C° 0 mm 2 mps 754 mmHg 67%
    10:00 +32°C° 0 mm 2 mps 754 mmHg 59%
    11:00 +34°C° 0 mm 2 mps 753 mmHg 56%
    12:00 +34°C° 0 mm 3 mps 753 mmHg 54%
    13:00 +35°C° 0 mm 3 mps 752 mmHg 52%
    14:00 +35°C° 0 mm 3 mps 752 mmHg 53%
    15:00 +34°C° 0 mm 4 mps 751 mmHg 55%
    16:00 +34°C° 0 mm 5 mps 750 mmHg 56%
    17:00 +33°C° 0 mm 5 mps 751 mmHg 63%
    18:00 +32°C° 0 mm 5 mps 751 mmHg 69%
    19:00 +29°C° 0 mm 5 mps 751 mmHg 76%
    20:00 +29°C° 0 mm 4 mps 752 mmHg 78%
    21:00 +29°C° 0 mm 4 mps 752 mmHg 80%
    22:00 +28°C° 0 mm 4 mps 753 mmHg 82%
    23:00 +28°C° 0.1 mm 4 mps 753 mmHg 83%
    Mostrar más